01-04-2022, 00:00:05,    340,    0.2,   -1.1,   0.00,   0.00, 1011.9,   80.9, -999.0
01-04-2022, 00:00:15,    345,    0.0,   -1.2,   0.00,   0.00, 1011.8,   80.7, -999.0
01-04-2022, 00:00:25,    344,    0.0,   -1.1,   0.00,   0.00, 1011.9,   80.9, -999.0
01-04-2022, 00:00:35,    344,    0.0,   -1.2,   0.00,   0.00, 1011.9,   80.9, -999.0
01-04-2022, 00:00:45,    343,    0.0,   -1.1,   0.00,   0.00, 1011.9,   80.8, -999.0
01-04-2022, 00:00:55,    326,    0.4,   -1.1,   0.00,   0.00, 1011.9,   81.1, -999.0
01-04-2022, 00:01:05,    324,    1.1,   -1.0,   0.00,   0.00, 1012.0,   81.3, -999.0
01-04-2022, 00:01:15,    327,    0.4,   -1.1,   0.00,   0.00, 1012.0,   81.2, -999.0
01-04-2022, 00:01:25,    329,    1.1,   -1.1,   0.00,   0.00, 1012.0,   81.4, -999.0
01-04-2022, 00:01:35,      8,    1.1,   -1.0,   0.00,   0.00, 1012.0,   81.1, -999.0
01-04-2022, 00:01:45,    331,    0.5,   -1.1,   0.00,   0.00, 1012.0,   81.1, -999.0
01-04-2022, 00:01:55,    327,    1.9,   -1.1,   0.00,   0.00, 1012.0,   81.3, -999.0
01-04-2022, 00:02:05,    329,    0.5,   -1.0,   0.00,   0.00, 1012.0,   81.2, -999.0
01-04-2022, 00:02:15,    332,    1.4,   -1.1,   0.00,   0.00, 1012.0,   81.2, -999.0
01-04-2022, 00:02:25,    334,    2.3,   -1.0,   0.00,   0.00, 1012.0,   81.4, -999.0
01-04-2022, 00:02:35,    342,    1.9,   -1.2,   0.00,   0.00, 1012.0,   81.4, -999.0
01-04-2022, 00:02:44,    341,    2.1,   -1.0,   0.00,   0.00, 1012.0,   81.4, -999.0
01-04-2022, 00:02:54,    340,    0.3,   -1.1,   0.00,   0.00, 1011.9,   81.2, -999.0
01-04-2022, 00:03:05,    340,    0.1,   -1.2,   0.00,   0.00, 1011.9,   81.2, -999.0
01-04-2022, 00:03:14,    341,    1.4,   -1.0,   0.00,   0.00, 1012.0,   81.6, -999.0
01-04-2022, 00:03:24,    341,    0.6,   -1.1,   0.00,   0.00, 1012.1,   81.5, -999.0
01-04-2022, 00:03:35,    352,    2.3,   -1.1,   0.00,   0.00, 1012.1,   81.4, -999.0
01-04-2022, 00:03:44,    331,    3.1,   -1.0,   0.00,   0.00, 1012.1,   81.4, -999.0
01-04-2022, 00:03:54,    348,    3.7,   -1.1,   0.00,   0.00, 1012.0,   81.5, -999.0
01-04-2022, 00:04:04,    345,    4.7,   -1.0,   0.00,   0.00, 1012.0,   81.6, -999.0
01-04-2022, 00:04:14,    336,    3.4,   -1.0,   0.00,   0.00, 1012.0,   81.5, -999.0
01-04-2022, 00:04:24,    332,    2.4,   -1.0,   0.00,   0.00, 1012.0,   81.6, -999.0
01-04-2022, 00:04:34,    334,    1.9,   -1.0,   0.00,   0.00, 1012.0,   81.6, -999.0
01-04-2022, 00:04:44,      0,    1.4,   -1.0,   0.00,   0.00, 1012.0,   81.6, -999.0
01-04-2022, 00:04:54,    341,    1.7,   -1.0,   0.00,   0.00, 1012.0,   81.5, -999.0
01-04-2022, 00:05:04,    340,    0.5,   -1.0,   0.00,   0.00, 1012.0,   81.5, -999.0
01-04-2022, 00:05:14,    340,    0.1,   -1.1,   0.00,   0.00, 1011.9,   81.2, -999.0
01-04-2022, 00:05:24,    339,    0.7,   -1.0,   0.00,   0.00, 1012.0,   81.4, -999.0
01-04-2022, 00:05:34,    340,    0.3,   -1.1,   0.00,   0.00, 1011.9,   81.1, -999.0
01-04-2022, 00:05:44,    340,    0.4,   -1.1,   0.00,   0.00, 1011.9,   81.2, -999.0
01-04-2022, 00:05:54,    326,    0.3,   -1.1,   0.00,   0.00, 1011.9,   81.1, -999.0
01-04-2022, 00:06:04,    327,    2.2,   -1.1,   0.00,   0.00, 1012.0,   81.4, -999.0
01-04-2022, 00:06:14,    328,    1.4,   -1.1,   0.00,   0.00, 1012.0,   81.4, -999.0
01-04-2022, 00:06:23,    344,    2.3,   -1.0,   0.00,   0.00, 1012.1,   81.5, -999.0
01-04-2022, 00:06:33,    341,    0.9,   -1.0,   0.00,   0.00, 1012.0,   81.6, -999.0
01-04-2022, 00:06:44,    341,    0.0,   -1.1,   0.00,   0.00, 1011.9,   81.2, -999.0
01-04-2022, 00:06:53,    354,    0.3,   -1.1,   0.00,   0.00, 1011.9,   81.3, -999.0
01-04-2022, 00:07:03,    344,    1.5,   -1.1,   0.00,   0.00, 1012.0,   81.5, -999.0
01-04-2022, 00:07:13,    349,    0.5,   -1.2,   0.00,   0.00, 1012.0,   81.4, -999.0
01-04-2022, 00:07:23,    322,    2.8,   -1.2,   0.00,   0.00, 1012.0,   81.6, -999.0
01-04-2022, 00:07:33,    304,    2.8,   -1.1,   0.00,   0.00, 1012.0,   81.7, -999.0
01-04-2022, 00:07:43,    334,    1.4,   -1.2,   0.00,   0.00, 1012.0,   81.7, -999.0
01-04-2022, 00:07:53,    352,    1.6,   -1.1,   0.00,   0.00, 1012.0,   81.7, -999.0
01-04-2022, 00:08:03,    349,    1.4,   -1.1,   0.00,   0.00, 1012.0,   81.8, -999.0
01-04-2022, 00:08:13,    334,    1.6,   -1.1,   0.00,   0.00, 1012.0,   81.7, -999.0
01-04-2022, 00:08:23,    336,    1.4,   -1.1,   0.00,   0.00, 1012.0,   81.8, -999.0
01-04-2022, 00:08:33,    358,    2.7,   -1.1,   0.00,   0.00, 1012.0,   81.8, -999.0
01-04-2022, 00:08:43,    357,    2.4,   -1.1,   0.00,   0.00, 1012.0,   81.7, -999.0
01-04-2022, 00:08:53,    322,    2.0,   -1.1,   0.00,   0.00, 1012.0,   81.7, -999.0
01-04-2022, 00:09:03,    302,    0.8,   -1.1,   0.00,   0.00, 1012.0,   81.7, -999.0
01-04-2022, 00:09:13,    299,    0.5,   -1.1,   0.00,   0.00, 1012.0,   81.7, -999.0
01-04-2022, 00:09:23,    336,    0.9,   -1.2,   0.00,   0.00, 1012.0,   81.7, -999.0
01-04-2022, 00:09:32,    339,    0.4,   -1.1,   0.00,   0.00, 1012.0,   81.7, -999.0
01-04-2022, 00:09:43,    342,    0.7,   -1.1,   0.00,   0.00, 1012.0,   81.6, -999.0
01-04-2022, 00:09:53,    341,    0.5,   -1.1,   0.00,   0.00, 1012.0,   81.7, -999.0
01-04-2022, 00:10:02,    331,    0.3,   -1.2,   0.00,   0.00, 1012.0,   81.4, -999.0
01-04-2022, 00:10:12,    324,    2.0,   -1.2,   0.00,   0.00, 1012.1,   81.8, -999.0
01-04-2022, 00:10:23,    325,    0.7,   -1.1,   0.00,   0.00, 1012.1,   81.8, -999.0
01-04-2022, 00:10:32,    327,    0.4,   -1.2,   0.00,   0.00, 1012.0,   81.7, -999.0
01-04-2022, 00:10:42,    340,    1.0,   -1.1,   0.00,   0.00, 1012.1,   81.8, -999.0
01-04-2022, 00:10:52,    345,    1.3,   -1.1,   0.00,   0.00, 1012.1,   81.8, -999.0
01-04-2022, 00:11:02,    341,    1.8,   -1.1,   0.00,   0.00, 1012.1,   81.8, -999.0
01-04-2022, 00:11:12,    336,    1.3,   -1.1,   0.00,   0.00, 1012.1,   81.9, -999.0
01-04-2022, 00:11:22,    332,    1.3,   -1.2,   0.00,   0.00, 1012.1,   81.9, -999.0
01-04-2022, 00:11:32,    341,    1.2,   -1.1,   0.00,   0.00, 1012.1,   81.9, -999.0
01-04-2022, 00:11:42,    333,    1.2,   -1.1,   0.00,   0.00, 1012.1,   81.9, -999.0
01-04-2022, 00:11:52,    332,    0.6,   -1.1,   0.00,   0.00, 1012.0,   81.9, -999.0
01-04-2022, 00:12:02,    332,    0.9,   -1.1,   0.00,   0.00, 1012.1,   82.0, -999.0
01-04-2022, 00:12:12,    326,    0.9,   -1.2,   0.00,   0.00, 1012.1,   82.0, -999.0
01-04-2022, 00:12:22,    326,    0.9,   -1.1,   0.00,   0.00, 1012.1,   81.9, -999.0
01-04-2022, 00:12:32,    347,    0.7,   -1.1,   0.00,   0.00, 1012.0,   81.8, -999.0
01-04-2022, 00:12:42,    317,    1.6,   -1.2,   0.00,   0.00, 1012.1,   81.9, -999.0
01-04-2022, 00:12:52,    351,    1.4,   -1.3,   0.00,   0.00, 1012.1,   81.9, -999.0
01-04-2022, 00:13:02,    345,    1.3,   -1.3,   0.00,   0.00, 1012.1,   81.9, -999.0
01-04-2022, 00:13:11,    342,    0.7,   -1.1,   0.00,   0.00, 1012.1,   81.9, -999.0
01-04-2022, 00:13:21,    345,    0.2,   -1.2,   0.00,   0.00, 1012.0,   82.0, -999.0
01-04-2022, 00:13:32,    344,    0.0,   -1.4,   0.00,   0.00, 1011.9,   81.6, -999.0
01-04-2022, 00:13:41,    345,    0.0,   -1.3,   0.00,   0.00, 1011.9,   81.7, -999.0
01-04-2022, 00:13:51,    344,    0.2,   -1.3,   0.00,   0.00, 1012.0,   82.0, -999.0
01-04-2022, 00:14:01,    343,    0.0,   -1.2,   0.00,   0.00, 1011.9,   81.8, -999.0
01-04-2022, 00:14:11,    343,    0.0,   -1.3,   0.00,   0.00, 1011.9,   81.7, -999.0
01-04-2022, 00:14:21,    343,    0.0,   -1.3,   0.00,   0.00, 1011.9,   81.8, -999.0
01-04-2022, 00:14:31,    339,    1.6,   -1.2,   0.00,   0.00, 1012.0,   82.1, -999.0
01-04-2022, 00:14:41,    354,    1.5,   -1.2,   0.00,   0.00, 1012.0,   82.1, -999.0
01-04-2022, 00:14:51,    344,    1.0,   -1.3,   0.00,   0.00, 1012.0,   82.0, -999.0
01-04-2022, 00:15:01,    345,    0.0,   -1.3,   0.00,   0.00, 1011.9,   81.7, -999.0
01-04-2022, 00:15:11,    344,    0.0,   -1.3,   0.00,   0.00, 1011.9,   81.9, -999.0
01-04-2022, 00:15:21,    336,    0.4,   -1.2,   0.00,   0.00, 1012.0,   82.0, -999.0
01-04-2022, 00:15:31,    350,    1.7,   -1.2,   0.00,   0.00, 1012.1,   82.3, -999.0
01-04-2022, 00:15:41,    347,    1.9,   -1.3,   0.00,   0.00, 1012.1,   82.2, -999.0
01-04-2022, 00:15:51,    345,    2.2,   -1.3,   0.00,   0.00, 1012.1,   82.3, -999.0
01-04-2022, 00:16:01,    333,    2.1,   -1.2,   0.00,   0.00, 1012.1,   82.3, -999.0
01-04-2022, 00:16:11,      0,    1.6,   -1.3,   0.00,   0.00, 1012.1,   82.3, -999.0
01-04-2022, 00:16:21,      0,    0.5,   -1.3,   0.00,   0.00, 1012.1,   82.3, -999.0
01-04-2022, 00:16:31,    330,    0.1,   -1.3,   0.00,   0.00, 1012.0,   82.1, -999.0
01-04-2022, 00:16:41,    330,    0.5,   -1.2,   0.00,   0.00, 1012.1,   82.4, -999.0
01-04-2022, 00:16:50,    339,    0.0,   -1.3,   0.00,   0.00, 1011.9,   82.0, -999.0
01-04-2022, 00:17:00,    338,    0.0,   -1.3,   0.00,   0.00, 1011.9,   82.0, -999.0
01-04-2022, 00:17:11,    338,    0.0,   -1.4,   0.00,   0.00, 1011.9,   82.0, -999.0
01-04-2022, 00:17:20,    350,    0.0,   -1.4,   0.00,   0.00, 1011.9,   82.0, -999.0
01-04-2022, 00:17:30,    341,    0.8,   -1.3,   0.00,   0.00, 1012.0,   82.3, -999.0
01-04-2022, 00:17:40,    340,    0.0,   -1.6,   0.00,   0.00, 1011.9,   82.1, -999.0
01-04-2022, 00:17:50,    342,    0.0,   -1.4,   0.00,   0.00, 1011.9,   82.0, -999.0
01-04-2022, 00:18:00,    339,    0.0,   -1.4,   0.00,   0.00, 1011.9,   82.0, -999.0
01-04-2022, 00:18:10,    343,    0.0,   -1.4,   0.00,   0.00, 1011.9,   82.1, -999.0
01-04-2022, 00:18:20,    343,    0.0,   -1.4,   0.00,   0.00, 1011.9,   82.0, -999.0
01-04-2022, 00:18:30,    336,    1.0,   -1.3,   0.00,   0.00, 1012.1,   82.5, -999.0
01-04-2022, 00:18:40,    352,    1.8,   -1.3,   0.00,   0.00, 1012.1,   82.5, -999.0
01-04-2022, 00:18:50,    345,    1.4,   -1.3,   0.00,   0.00, 1012.1,   82.5, -999.0
01-04-2022, 00:19:00,    337,    1.6,   -1.3,   0.00,   0.00, 1012.1,   82.6, -999.0
01-04-2022, 00:19:10,    338,    2.5,   -1.4,   0.00,   0.00, 1012.1,   82.6, -999.0
01-04-2022, 00:19:20,    348,    2.9,   -1.4,   0.00,   0.00, 1012.1,   82.6, -999.0
01-04-2022, 00:19:30,    340,    1.9,   -1.3,   0.00,   0.00, 1012.1,   82.6, -999.0
01-04-2022, 00:19:40,    335,    2.7,   -1.3,   0.00,   0.00, 1012.1,   82.7, -999.0
01-04-2022, 00:19:50,    329,    0.8,   -1.3,   0.00,   0.00, 1012.1,   82.6, -999.0
01-04-2022, 00:20:00,    331,    0.3,   -1.4,   0.00,   0.00, 1012.0,   82.4, -999.0
01-04-2022, 00:20:09,    334,    0.9,   -1.3,   0.00,   0.00, 1012.1,   82.6, -999.0
01-04-2022, 00:20:20,    346,    1.8,   -1.4,   0.00,   0.00, 1012.1,   82.6, -999.0
01-04-2022, 00:20:29,    356,    1.3,   -1.4,   0.00,   0.00, 1012.1,   82.7, -999.0
01-04-2022, 00:20:39,    341,    1.8,   -1.4,   0.00,   0.00, 1012.1,   82.7, -999.0
01-04-2022, 00:20:49,    340,    0.8,   -1.4,   0.00,   0.00, 1012.1,   82.7, -999.0
01-04-2022, 00:20:59,    335,    1.2,   -1.3,   0.00,   0.00, 1012.1,   82.7, -999.0
01-04-2022, 00:21:09,      0,    1.1,   -1.4,   0.00,   0.00, 1012.1,   82.7, -999.0
01-04-2022, 00:21:19,      0,    0.0,   -1.5,   0.00,   0.00, 1011.9,   82.5, -999.0
01-04-2022, 00:21:29,    343,    1.6,   -1.4,   0.00,   0.00, 1012.1,   82.7, -999.0
01-04-2022, 00:21:39,    342,    1.3,   -1.3,   0.00,   0.00, 1012.1,   82.8, -999.0
01-04-2022, 00:21:49,    340,    0.0,   -1.4,   0.00,   0.00, 1012.0,   82.4, -999.0
01-04-2022, 00:21:59,    354,    0.1,   -1.4,   0.00,   0.00, 1012.0,   82.7, -999.0
01-04-2022, 00:22:09,    350,    0.0,   -1.4,   0.00,   0.00, 1011.9,   82.5, -999.0
01-04-2022, 00:22:19,     15,    0.8,   -1.4,   0.00,   0.00, 1012.1,   82.8, -999.0
01-04-2022, 00:22:29,    346,    1.1,   -1.3,   0.00,   0.00, 1012.1,   82.8, -999.0
01-04-2022, 00:22:39,    344,    3.0,   -1.3,   0.00,   0.00, 1012.1,   82.8, -999.0
01-04-2022, 00:22:49,    340,    2.1,   -1.4,   0.00,   0.00, 1012.1,   82.9, -999.0
01-04-2022, 00:22:59,    319,    1.9,   -1.3,   0.00,   0.00, 1012.1,   83.0, -999.0
01-04-2022, 00:23:09,    333,    2.4,   -1.3,   0.00,   0.00, 1012.1,   83.1, -999.0
01-04-2022, 00:23:18,    347,    1.1,   -1.3,   0.00,   0.00, 1012.1,   83.0, -999.0
01-04-2022, 00:23:29,    330,    1.6,   -1.4,   0.00,   0.00, 1012.1,   83.0, -999.0
01-04-2022, 00:23:39,      5,    2.3,   -1.3,   0.00,   0.00, 1012.1,   83.0, -999.0
01-04-2022, 00:23:48,      1,    0.3,   -1.4,   0.00,   0.00, 1012.0,   82.8, -999.0
01-04-2022, 00:23:59,    336,    1.5,   -1.4,   0.00,   0.00, 1012.1,   83.1, -999.0
01-04-2022, 00:24:08,    336,    1.1,   -1.4,   0.00,   0.00, 1012.1,   83.0, -999.0
01-04-2022, 00:24:18,    341,    0.7,   -1.3,   0.00,   0.01, 1012.1,   83.0, -999.0
01-04-2022, 00:24:28,    339,    0.9,   -1.3,   0.00,   0.00, 1012.1,   83.0, -999.0
01-04-2022, 00:24:38,    337,    0.2,   -1.3,   0.00,   0.00, 1012.0,   82.9, -999.0
01-04-2022, 00:24:48,    336,    0.8,   -1.4,   0.00,   0.00, 1012.1,   83.1, -999.0
01-04-2022, 00:24:58,    336,    0.3,   -1.4,   0.00,   0.00, 1012.1,   82.9, -999.0
01-04-2022, 00:25:08,    338,    0.0,   -1.4,   0.00,   0.00, 1012.0,   82.7, -999.0
01-04-2022, 00:25:18,    338,    0.0,   -1.4,   0.00,   0.00, 1011.9,   82.7, -999.0
01-04-2022, 00:25:28,    339,    0.1,   -1.4,   0.00,   0.00, 1011.9,   82.6, -999.0
01-04-2022, 00:25:38,    358,    3.2,   -1.3,   0.00,   0.00, 1012.1,   82.9, -999.0
01-04-2022, 00:25:48,    320,    2.1,   -1.3,   0.00,   0.00, 1012.1,   83.1, -999.0
01-04-2022, 00:25:58,    334,    1.5,   -1.3,   0.00,   0.00, 1012.1,   83.1, -999.0
01-04-2022, 00:26:08,    328,    1.7,   -1.3,   0.00,   0.00, 1012.1,   83.0, -999.0
01-04-2022, 00:26:18,    333,    1.1,   -1.3,   0.00,   0.00, 1012.1,   82.9, -999.0
01-04-2022, 00:26:28,    332,    0.9,   -1.4,   0.00,   0.00, 1012.1,   82.8, -999.0
01-04-2022, 00:26:38,    358,    2.2,   -1.3,   0.00,   0.00, 1012.1,   82.9, -999.0
01-04-2022, 00:26:48,    349,    1.9,   -1.2,   0.00,   0.00, 1012.1,   82.9, -999.0
01-04-2022, 00:26:57,    344,    0.4,   -1.3,   0.00,   0.00, 1012.0,   82.6, -999.0
01-04-2022, 00:27:08,    343,    0.8,   -1.3,   0.00,   0.00, 1012.1,   82.9, -999.0
01-04-2022, 00:27:17,    341,    1.4,   -1.3,   0.00,   0.00, 1012.1,   82.9, -999.0
01-04-2022, 00:27:27,      1,    1.6,   -1.4,   0.00,   0.00, 1012.1,   82.9, -999.0
01-04-2022, 00:27:38,    340,    1.3,   -1.4,   0.00,   0.00, 1012.1,   82.8, -999.0
01-04-2022, 00:27:47,    337,    2.0,   -1.3,   0.00,   0.00, 1012.1,   82.8, -999.0
01-04-2022, 00:27:57,    335,    2.4,   -1.3,   0.00,   0.00, 1012.1,   82.9, -999.0
01-04-2022, 00:28:07,    326,    1.4,   -1.3,   0.00,   0.00, 1012.1,   82.8, -999.0
01-04-2022, 00:28:17,    329,    1.7,   -1.3,   0.00,   0.00, 1012.1,   82.8, -999.0
01-04-2022, 00:28:27,    336,    1.1,   -1.4,   0.00,   0.00, 1012.1,   82.7, -999.0
01-04-2022, 00:28:37,    358,    2.3,   -1.3,   0.00,   0.00, 1012.1,   82.7, -999.0
01-04-2022, 00:28:47,    343,    1.0,   -1.4,   0.00,   0.00, 1012.1,   82.7, -999.0
01-04-2022, 00:28:57,    344,    0.9,   -1.4,   0.00,   0.00, 1012.1,   82.7, -999.0
01-04-2022, 00:29:07,    347,    1.0,   -1.4,   0.00,   0.00, 1012.1,   82.6, -999.0
01-04-2022, 00:29:17,    318,    1.3,   -1.4,   0.00,   0.00, 1012.1,   82.8, -999.0
01-04-2022, 00:29:27,    318,    1.0,   -1.3,   0.00,   0.00, 1012.1,   82.7, -999.0
01-04-2022, 00:29:37,    329,    1.1,   -1.4,   0.00,   0.00, 1012.1,   82.9, -999.0
01-04-2022, 00:29:47,    333,    0.0,   -1.4,   0.00,   0.00, 1011.9,   82.5, -999.0
01-04-2022, 00:29:57,    332,    0.0,   -1.4,   0.00,   0.00, 1012.0,   82.4, -999.0
01-04-2022, 00:30:07,    332,    0.0,   -1.4,   0.00,   0.00, 1011.9,   82.5, -999.0
01-04-2022, 00:30:17,      7,    0.3,   -1.4,   0.00,   0.00, 1012.0,   82.6, -999.0
01-04-2022, 00:30:26,    300,    0.2,   -1.6,   0.00,   0.00, 1012.0,   82.7, -999.0
01-04-2022, 00:30:36,    333,    0.0,   -1.4,   0.00,   0.00, 1011.9,   82.7, -999.0
01-04-2022, 00:30:47,    328,    0.9,   -1.4,   0.00,   0.00, 1012.0,   82.8, -999.0
01-04-2022, 00:30:56,    329,    0.3,   -1.4,   0.00,   0.00, 1012.0,   82.6, -999.0
01-04-2022, 00:31:06,    319,    3.2,   -1.3,   0.00,   0.00, 1012.1,   82.8, -999.0
01-04-2022, 00:31:16,      0,    1.1,   -1.4,   0.00,   0.00, 1012.0,   82.7, -999.0
01-04-2022, 00:31:26,    348,    0.3,   -1.4,   0.00,   0.00, 1012.0,   82.8, -999.0
01-04-2022, 00:31:36,    339,    2.1,   -1.3,   0.00,   0.00, 1012.1,   83.0, -999.0
01-04-2022, 00:31:46,    358,    2.4,   -1.3,   0.00,   0.00, 1012.1,   82.9, -999.0
01-04-2022, 00:31:56,    350,    2.4,   -1.4,   0.00,   0.00, 1012.1,   82.9, -999.0
01-04-2022, 00:32:06,    321,    0.9,   -1.4,   0.00,   0.00, 1012.0,   82.8, -999.0
01-04-2022, 00:32:16,     39,    0.3,   -1.3,   0.00,   0.00, 1011.9,   82.8, -999.0
01-04-2022, 00:32:26,    337,    0.2,   -1.5,   0.00,   0.00, 1011.9,   82.8, -999.0
01-04-2022, 00:32:36,    337,    0.0,   -1.4,   0.00,   0.00, 1011.9,   82.6, -999.0
01-04-2022, 00:32:46,    353,    0.2,   -1.4,   0.00,   0.00, 1011.9,   82.5, -999.0
01-04-2022, 00:32:56,    331,    1.9,   -1.3,   0.00,   0.00, 1012.1,   82.8, -999.0
01-04-2022, 00:33:06,    333,    0.1,   -1.3,   0.00,   0.00, 1011.9,   82.7, -999.0
01-04-2022, 00:33:16,    331,    0.5,   -1.3,   0.00,   0.00, 1011.9,   82.6, -999.0
01-04-2022, 00:33:26,    319,    2.3,   -1.2,   0.00,   0.00, 1012.1,   82.9, -999.0
01-04-2022, 00:33:36,    319,    0.2,   -1.3,   0.00,   0.00, 1012.0,   82.8, -999.0
01-04-2022, 00:33:45,    333,    1.9,   -1.3,   0.00,   0.00, 1012.1,   82.8, -999.0
01-04-2022, 00:33:56,    338,    2.4,   -1.3,   0.00,   0.00, 1012.1,   82.9, -999.0
01-04-2022, 00:34:05,    327,    2.1,   -1.3,   0.00,   0.00, 1012.1,   82.8, -999.0
01-04-2022, 00:34:15,    325,    3.0,   -1.3,   0.00,   0.00, 1012.1,   82.7, -999.0
01-04-2022, 00:34:26,    343,    2.9,   -1.3,   0.00,   0.00, 1012.1,   82.8, -999.0
01-04-2022, 00:34:35,      0,    2.4,   -1.2,   0.00,   0.00, 1012.1,   82.8, -999.0
01-04-2022, 00:34:45,    346,    2.1,   -1.2,   0.00,   0.00, 1012.1,   82.8, -999.0
01-04-2022, 00:34:55,     73,    0.4,   -1.2,   0.00,   0.00, 1012.0,   82.6, -999.0
01-04-2022, 00:35:05,    338,    0.7,   -1.3,   0.00,   0.00, 1012.1,   82.6, -999.0
01-04-2022, 00:35:15,    332,    1.1,   -1.3,   0.00,   0.00, 1012.1,   82.6, -999.0
01-04-2022, 00:35:25,    331,    0.2,   -1.3,   0.00,   0.00, 1012.0,   82.3, -999.0
01-04-2022, 00:35:35,    357,    2.3,   -1.3,   0.00,   0.00, 1012.1,   82.4, -999.0
01-04-2022, 00:35:45,      0,    1.1,   -1.3,   0.00,   0.00, 1012.1,   82.5, -999.0
01-04-2022, 00:35:55,    326,    1.4,   -1.3,   0.00,   0.00, 1012.1,   82.6, -999.0
01-04-2022, 00:36:05,    354,    0.9,   -1.2,   0.00,   0.00, 1012.0,   82.5, -999.0
01-04-2022, 00:36:15,    352,    0.0,   -1.3,   0.00,   0.00, 1012.0,   82.4, -999.0
01-04-2022, 00:36:25,    349,    1.7,   -1.2,   0.00,   0.00, 1012.1,   82.6, -999.0
01-04-2022, 00:36:35,    337,    0.1,   -1.3,   0.00,   0.00, 1012.0,   82.3, -999.0
01-04-2022, 00:36:45,    334,    0.2,   -1.3,   0.00,   0.00, 1012.0,   82.3, -999.0
01-04-2022, 00:36:55,     15,    0.5,   -1.2,   0.00,   0.00, 1012.0,   82.4, -999.0
01-04-2022, 00:37:05,    343,    0.0,   -1.3,   0.00,   0.00, 1012.0,   82.1, -999.0
01-04-2022, 00:37:15,    353,    0.1,   -1.3,   0.00,   0.00, 1012.0,   82.3, -999.0
01-04-2022, 00:37:24,    340,    3.1,   -1.3,   0.00,   0.00, 1012.1,   82.4, -999.0
01-04-2022, 00:37:35,      0,    3.3,   -1.2,   0.00,   0.00, 1012.1,   82.5, -999.0
01-04-2022, 00:37:47,    348,    1.3,   -1.2,   0.00,   0.00, 1012.1,   82.6, -999.0
01-04-2022, 00:37:54,      2,    0.9,   -1.1,   0.00,   0.00, 1012.1,   82.5, -999.0
01-04-2022, 00:38:05,    320,    2.1,   -1.1,   0.00,   0.00, 1012.1,   82.4, -999.0
01-04-2022, 00:38:14,    323,    1.7,   -1.3,   0.00,   0.00, 1012.1,   82.4, -999.0
01-04-2022, 00:38:24,    354,    0.7,   -1.2,   0.00,   0.00, 1012.0,   82.3, -999.0
01-04-2022, 00:38:34,    340,    0.4,   -1.2,   0.00,   0.00, 1012.0,   82.2, -999.0
01-04-2022, 00:38:44,    334,    0.7,   -1.2,   0.00,   0.00, 1012.0,   82.2, -999.0
01-04-2022, 00:38:54,      0,    2.3,   -1.2,   0.00,   0.00, 1012.1,   82.3, -999.0
01-04-2022, 00:39:04,    343,    1.1,   -1.1,   0.00,   0.00, 1012.1,   82.2, -999.0
01-04-2022, 00:39:14,    324,    2.6,   -1.2,   0.00,   0.00, 1012.1,   82.3, -999.0
01-04-2022, 00:39:24,    340,    2.3,   -1.1,   0.00,   0.00, 1012.1,   82.3, -999.0
01-04-2022, 00:39:34,    311,    1.0,   -1.2,   0.00,   0.00, 1012.1,   82.2, -999.0
01-04-2022, 00:39:44,    337,    1.6,   -1.2,   0.00,   0.00, 1012.0,   82.3, -999.0
01-04-2022, 00:39:54,      0,    1.0,   -1.2,   0.00,   0.00, 1012.0,   82.2, -999.0
01-04-2022, 00:40:04,      0,    0.0,   -1.3,   0.00,   0.00, 1011.9,   81.9, -999.0
01-04-2022, 00:40:14,    350,    0.0,   -1.2,   0.00,   0.00, 1011.9,   82.1, -999.0
01-04-2022, 00:40:24,    350,    0.0,   -1.3,   0.00,   0.00, 1011.9,   81.9, -999.0
01-04-2022, 00:40:34,    349,    0.0,   -1.3,   0.00,   0.00, 1011.9,   81.8, -999.0
01-04-2022, 00:40:44,    359,    1.1,   -1.3,   0.00,   0.00, 1012.0,   81.8, -999.0
01-04-2022, 00:40:54,      0,    0.3,   -1.3,   0.00,   0.00, 1012.0,   81.9, -999.0
01-04-2022, 00:41:03,    352,    0.4,   -1.3,   0.00,   0.00, 1012.0,   82.0, -999.0
01-04-2022, 00:41:14,      0,    2.5,   -1.3,   0.00,   0.00, 1012.1,   82.2, -999.0
01-04-2022, 00:41:23,    358,    2.2,   -1.3,   0.00,   0.00, 1012.0,   82.2, -999.0
01-04-2022, 00:41:33,    345,    2.5,   -1.2,   0.00,   0.00, 1012.0,   82.2, -999.0
01-04-2022, 00:41:43,      0,    2.4,   -1.2,   0.00,   0.00, 1012.1,   82.2, -999.0
01-04-2022, 00:41:53,    343,    2.4,   -1.2,   0.00,   0.00, 1012.0,   82.2, -999.0
01-04-2022, 00:42:03,    352,    1.6,   -1.3,   0.00,   0.00, 1012.1,   82.2, -999.0
01-04-2022, 00:42:13,      0,    1.3,   -1.2,   0.00,   0.00, 1012.1,   82.2, -999.0
01-04-2022, 00:42:23,      0,    0.3,   -1.2,   0.00,   0.00, 1012.0,   82.2, -999.0
01-04-2022, 00:42:33,    332,    2.1,   -1.2,   0.00,   0.00, 1012.1,   82.1, -999.0
01-04-2022, 00:42:43,    338,    2.4,   -1.2,   0.00,   0.00, 1012.0,   82.3, -999.0
01-04-2022, 00:42:53,    329,    2.0,   -1.3,   0.00,   0.00, 1012.0,   82.2, -999.0
01-04-2022, 00:43:03,    328,    0.0,   -1.3,   0.00,   0.00, 1011.9,   82.0, -999.0
01-04-2022, 00:43:13,    303,    0.3,   -1.3,   0.00,   0.00, 1012.0,   82.0, -999.0
01-04-2022, 00:43:23,    343,    1.1,   -1.1,   0.00,   0.00, 1012.1,   82.2, -999.0
01-04-2022, 00:43:33,      0,    0.8,   -1.2,   0.00,   0.00, 1012.0,   82.0, -999.0
01-04-2022, 00:43:43,    338,    4.1,   -1.1,   0.00,   0.00, 1012.0,   82.1, -999.0
01-04-2022, 00:43:55,    317,    4.1,   -1.1,   0.00,   0.00, 1012.1,   82.3, -999.0
01-04-2022, 00:44:03,    357,    1.7,   -1.1,   0.00,   0.00, 1012.1,   82.2, -999.0
01-04-2022, 00:44:12,    353,    4.2,   -1.1,   0.00,   0.00, 1012.0,   82.2, -999.0
01-04-2022, 00:44:23,    352,    3.4,   -1.1,   0.00,   0.00, 1012.0,   82.0, -999.0
01-04-2022, 00:44:32,    349,    2.5,   -1.1,   0.00,   0.00, 1012.0,   81.9, -999.0
01-04-2022, 00:44:42,      0,    0.5,   -1.1,   0.00,   0.00, 1011.9,   81.7, -999.0
01-04-2022, 00:44:53,     37,    0.0,   -1.3,   0.00,   0.00, 1011.9,   81.6, -999.0
01-04-2022, 00:45:02,     30,    0.0,   -1.3,   0.00,   0.00, 1011.8,   81.4, -999.0
01-04-2022, 00:45:12,      0,    0.4,   -1.2,   0.00,   0.00, 1012.0,   81.6, -999.0
01-04-2022, 00:45:22,      0,    0.0,   -1.4,   0.00,   0.00, 1011.9,   81.4, -999.0
01-04-2022, 00:45:32,      0,    1.8,   -1.3,   0.00,   0.00, 1012.0,   81.7, -999.0
01-04-2022, 00:45:42,    318,    2.3,   -1.1,   0.00,   0.00, 1012.0,   81.9, -999.0
01-04-2022, 00:45:52,    339,    2.9,   -1.0,   0.00,   0.00, 1012.0,   81.9, -999.0
01-04-2022, 00:46:02,    352,    3.4,   -1.1,   0.00,   0.00, 1012.0,   81.9, -999.0
01-04-2022, 00:46:12,    330,    2.9,   -1.1,   0.00,   0.00, 1012.0,   82.0, -999.0
01-04-2022, 00:46:22,      0,    0.7,   -1.0,   0.00,   0.00, 1012.0,   81.9, -999.0
01-04-2022, 00:46:32,    348,    0.8,   -1.0,   0.00,   0.00, 1012.0,   81.9, -999.0
01-04-2022, 00:46:42,    327,    1.8,   -1.1,   0.00,   0.00, 1012.0,   81.9, -999.0